"Pseudo-MPEC" for ST26C01

Created 2026 Mar 11 7:35:24 UT using Find_Orb

Click here for an explanation of pseudo-MPECs

 
 Astrometry: 
     ST26C01* C2026 03 06.24979508 38 00.241+06 00 06.97   ~3675 19.09GVNEOCPU68
     ST26C01  C2026 03 06.25313608 37 51.537+05 59 49.93   ~3675 19.09GVNEOCPU68
     ST26C01  C2026 03 06.28015808 36 41.091+05 57 38.33   ~3685 18.84GVNEOCPU74
     ST26C01  C2026 03 06.28316608 36 33.215+05 57 22.29   ~3685 18.84GVNEOCPU74
     ST26C01  C2026 03 06.28754608 36 21.623+05 57 00.81   ~3685 19.45GVNEOCPU74
     ST26C01  C2026 03 06.29005208 36 15.059+05 56 47.46   ~3685 19.45GVNEOCPU74

Station data:
(U68) JPL SynTrack Robotic Telescope, Auberry  (N37.070387 W119.412990)
   US/California.  Observers N. Saini, C. Zhai, R. Trahan, M. Zhan, M. Shao.
   0.28-m f/2.2 Schmidt + CCD.
(U74) JPL SynTrack Robotic Telescope 2, Auberry  (N37.070341 W119.412800)
   US/California.  Observers N. Saini, C. Zhai, R. Trahan, M. Zhan, M. Shao.
   0.36-m f/2.2 Schmidt.

Orbital elements:  ST26C01
   Perihelion 2026 Jun 4.806047 +/- 18.2 TT = 19:20:42.4 (JD 2461196.306047)
Epoch 2026 Mar  6.0 TT = JDT 2461105.5   Earth MOID: 0.0055   Ve: 0.0485
M 264.136878663 +/- 26              (J2000 ecliptic)             AutoNEOCP
n   1.055690947 +/- 0.208           Peri.  300.824009 +/- 59
a   0.955237839 +/- 0.125           Node   340.078563 +/- 70
e   0.18777957 +/- 0.133            Incl.    2.240141 +/- 0.9
P   0.934/341.002d         H 26.97  G  0.15   U 11.7  SR
q 0.775863678 +/- 0.0865    Q 1.134611999 +/- 0.423
From 6 observations 2026 Mar. 6 (58.0 min); mean residual 0".71
Residuals in arcseconds: 
260306 U68  .20-  .28+    260306 U74  1.2+  .87+    260306 U74  .88-  .18+    
260306 U68  .25-  .51-    260306 U74  1.1+  .20-    260306 U74  .96-  .63-    

Ephemerides (geocentric):
Date (UTC) HH   RA             Dec           delta  r     elong  mag " sig PA
---- --------  ------------   ------------  ------ ------ -----  --- --------
2026 03 11 08  04 13 28.387   -04 31 32.21  .01501 .98882  72.0 21.8  35d  92
2026 03 11 09  04 11 42.176   -04 35 30.55  .01508 .98869  71.5 21.9  34d  92
2026 03 11 10  04 09 56.966   -04 39 25.62  .01516 .98856  71.0 21.9  34d  92
2026 03 11 11  04 08 12.754   -04 43 17.41  .01523 .98843  70.6 21.9  34d  92
2026 03 11 12  04 06 29.537   -04 47 05.97  .01531 .98830  70.1 22.0  34d  92
2026 03 11 13  04 04 47.312   -04 50 51.30  .01538 .98816  69.6 22.0  34d  92
2026 03 11 14  04 03 06.076   -04 54 33.44  .01546 .98803  69.2 22.1  34d  92
2026 03 11 15  04 01 25.826   -04 58 12.41  .01554 .98790  68.7 22.1  34d  92
2026 03 11 16  03 59 46.556   -05 01 48.23  .01562 .98777  68.3 22.1  33d  92
2026 03 11 17  03 58 08.263   -05 05 20.94  .01570 .98764  67.8 22.2  33d  92
2026 03 11 18  03 56 30.941   -05 08 50.56  .01578 .98751  67.4 22.2  33d  92
2026 03 11 19  03 54 54.586   -05 12 17.12  .01586 .98738  66.9 22.2  33d  92
2026 03 11 20  03 53 19.192   -05 15 40.65  .01594 .98725  66.5 22.3  33d  92
2026 03 11 21  03 51 44.754   -05 19 01.19  .01602 .98711  66.1 22.3  33d  92
2026 03 11 22  03 50 11.266   -05 22 18.76  .01610 .98698  65.6 22.4  33d  92
2026 03 11 23  03 48 38.721   -05 25 33.39  .01619 .98685  65.2 22.4  33d  92
2026 03 12 00  03 47 07.114   -05 28 45.12  .01627 .98672  64.8 22.4  33d  92
2026 03 12 01  03 45 36.438   -05 31 53.98  .01636 .98659  64.4 22.5  32d  92
2026 03 12 02  03 44 06.686   -05 35 00.00  .01645 .98646  64.0 22.5  32d  92
2026 03 12 03  03 42 37.851   -05 38 03.22  .01653 .98633  63.6 22.6  32d  92
2026 03 12 04  03 41 09.927   -05 41 03.68  .01662 .98619  63.2 22.6  32d  91
2026 03 12 05  03 39 42.907   -05 44 01.40  .01671 .98606  62.8 22.6  32d  91
2026 03 12 06  03 38 16.782   -05 46 56.42  .01680 .98593  62.4 22.7  32d  91
2026 03 12 07  03 36 51.546   -05 49 48.77  .01689 .98580  62.0 22.7  32d  91
2026 03 12 08  03 35 27.191   -05 52 38.50  .01698 .98567  61.6 22.7  32d  91
2026 03 12 09  03 34 03.710   -05 55 25.62  .01707 .98554  61.2 22.8  31d  91
2026 03 12 10  03 32 41.094   -05 58 10.19  .01716 .98540  60.8 22.8  31d  91
2026 03 12 11  03 31 19.336   -06 00 52.23  .01725 .98527  60.5 22.9  31d  91
2026 03 12 12  03 29 58.428   -06 03 31.78  .01734 .98514  60.1 22.9  31d  91
2026 03 12 13  03 28 38.362   -06 06 08.88  .01744 .98501  59.7 22.9  31d  91
2026 03 12 14  03 27 19.130   -06 08 43.55  .01753 .98488  59.3 23.0  31d  91
2026 03 12 15  03 26 00.724   -06 11 15.84  .01763 .98475  59.0 23??  31d  91
2026 03 12 16  03 24 43.136   -06 13 45.77  .01772 .98461  58.6 23??  31d  91
2026 03 12 17  03 23 26.358   -06 16 13.39  .01782 .98448  58.3 23??  31d  91
2026 03 12 18  03 22 10.381   -06 18 38.72  .01791 .98435  57.9 23??  31d  91
2026 03 12 19  03 20 55.198   -06 21 01.81  .01801 .98422  57.6 23??  30d  91
2026 03 12 20  03 19 40.800   -06 23 22.67  .01811 .98409  57.2 23??  30d  91
2026 03 12 21  03 18 27.179   -06 25 41.36  .01820 .98395  56.9 23??  30d  91
2026 03 12 22  03 17 14.326   -06 27 57.89  .01830 .98382  56.6 23??  30d  91
2026 03 12 23  03 16 02.235   -06 30 12.31  .01840 .98369  56.2 23??  30d  91
2026 03 13 00  03 14 50.895   -06 32 24.65  .01850 .98356  55.9 23??  30d  91
2026 03 13 01  03 13 40.300   -06 34 34.93  .01860 .98343  55.6 23??  30d  91
2026 03 13 02  03 12 30.440   -06 36 43.20  .01870 .98329  55.2 23??  30d  91
2026 03 13 03  03 11 21.309   -06 38 49.48  .01880 .98316  54.9 23??  30d  91
2026 03 13 04  03 10 12.897   -06 40 53.80  .01890 .98303  54.6 23??  30d  91
2026 03 13 05  03 09 05.196   -06 42 56.20  .01900 .98290  54.3 23??  29d  91
2026 03 13 06  03 07 58.200   -06 44 56.70  .01911 .98276  54.0 23??  29d  91
2026 03 13 07  03 06 51.899   -06 46 55.34  .01921 .98263  53.7 23??  29d  91